KB2UHF-8 Weather Reports


time (UTC)temp
C
wind
direction
speed
KPH
gust
KPH
rain 1hr
cm
rain 24hr
cm
rain mn
cm
humidity
%
barometer
mb
20260904175515 24 135 6.4 16.1 0.15 1.09 1.04 96 1013.9
20260904174515 24 270 1.6 4.8 0.51 1.07 1.02 96 1014.7
20260904173517 24 158 1.6 4.8 0.79 1.02 0.97 96 1014.5
20260904172517 24 158 1.6 8.0 0.81 1.02 0.97 96 1014.1
20260904171517 24 158 4.8 11.3 0.79 0.99 0.94 95 1014.2
20260904170517 24 113 6.4 12.9 0.76 0.97 0.91 94 1014.1
20260904165517 25 113 11.3 17.7 0.74 0.94 0.89 93 1013.8
20260904164517 25 135 8.0 19.3 0.36 0.56 0.51 91 1014.2
20260904163517 26 135 8.0 19.3 0.03 0.23 0.18 86 1014.7
20260904162517 27 113 9.7 16.1 0.00 0.20 0.15 88 1014.6
20260904161519 26 135 8.0 17.7 0.00 0.25 0.15 90 1014.3
20260904160517 26 135 9.7 16.1 0.00 0.30 0.15 88 1014.2
20260904155517 26 135 8.0 14.5 0.00 0.46 0.15 90 1014.3
20260904154537 26 113 6.4 16.1 0.03 0.56 0.15 89 1014.3
20260904153517 26 113 6.4 11.3 0.03 0.56 0.15 91 1014.3
20260904152517 25 135 9.7 17.7 0.03 0.61 0.15 92 1014.0
20260904151517 25 113 6.4 16.1 0.03 0.66 0.15 92 1014.2
20260904150517 25 135 9.7 16.1 0.03 0.69 0.15 90 1013.9
20260904145517 26 135 9.7 17.7 0.03 0.69 0.15 89 1014.0
20260904144517 25 113 9.7 19.3 0.00 0.69 0.13 92 1014.0
20260904143517 25 113 9.7 14.5 0.00 0.71 0.13 94 1013.8
20260904142517 24 135 9.7 16.1 0.00 0.71 0.13 95 1013.7
20260904141517 24 113 6.4 11.3 0.00 0.71 0.13 98 1013.4
20260904140517 23 158 4.8 8.0 0.00 0.71 0.13 97 1013.6
20260904135517 23 158 4.8 8.0 0.00 0.74 0.13 97 1013.5
20260904134517 23 90 4.8 6.4 0.00 0.79 0.13 97 1013.4
20260904133517 23 0.0 1.6 0.00 0.84 0.13 97 1013.6
20260904132557 23 90 3.2 4.8 0.00 0.94 0.13 97 1013.5
20260904131518 23 90 4.8 6.4 0.00 0.99 0.13 97 1013.3
20260904130516 23 113 3.2 4.8 0.00 1.04 0.13 97 1013.3
20260904125517 23 0.0 0.0 0.00 1.14 0.13 97 1013.2
20260904124517 23 90 3.2 6.4 0.00 1.19 0.13 97 1013.0
20260904123517 23 0.0 4.8 0.00 1.27 0.13 97 1012.9
20260904122517 23 0.0 0.0 0.00 1.30 0.13 96 1012.6
20260904121517 23 0.0 0.0 0.00 1.32 0.13 96 1012.3
20260904120517 23 0.0 0.0 0.00 1.32 0.13 96 1012.4
20260904115517 23 45 1.6 4.8 0.00 1.32 0.13 96 1012.5
20260904114557 23 0.0 0.0 0.13 1.32 0.13 96 1012.3
20260904113518 23 0.0 0.0 0.13 1.32 0.13 95 1012.4
20260904112538 23 0.0 4.8 0.13 1.32 0.13 95 1012.2
20260904111517 23 180 1.6 8.0 0.13 1.32 0.13 95 1012.3
20260904110537 23 180 4.8 9.7 0.13 1.32 0.13 95 1012.1
20260904105517 23 248 1.6 6.4 0.13 1.32 0.13 95 1012.3
20260904104537 23 315 3.2 6.4 0.00 1.19 0.00 94 1012.4
20260904103518 23 248 1.6 4.8 0.00 1.19 0.00 94 1012.1
20260904102517 23 225 3.2 11.3 0.00 1.19 0.00 94 1012.1
20260904101517 23 225 3.2 11.3 0.00 1.19 0.00 94 1012.1
20260904100517 23 203 1.6 8.0 0.00 1.19 0.00 95 1012.2
20260904095537 24 180 1.6 9.7 0.00 1.19 0.00 95 1012.1
20260904094517 24 0.0 3.2 0.00 1.19 0.00 95 1012.4
20260904093517 24 180 1.6 4.8 0.00 1.19 0.00 95 1012.3
20260904092516 24 203 1.6 9.7 0.00 1.19 0.00 95 1012.4
20260904091516 24 180 1.6 6.4 0.00 1.19 0.00 95 1012.5
20260904090517 24 0.0 3.2 0.00 1.19 0.00 95 1012.5
20260904085516 24 0.0 3.2 0.00 1.19 0.00 94 1012.3
20260904084516 24 225 1.6 8.0 0.00 1.19 0.00 95 1012.3
20260904083558 24 180 3.2 6.4 0.00 1.19 0.00 95 1012.3
20260904082516 24 180 1.6 9.7 0.00 1.19 0.00 95 1012.3
20260904081518 24 225 1.6 6.4 0.00 1.19 0.00 95 1012.2
20260904080516 24 225 3.2 12.9 0.00 1.19 0.00 95 1012.2
20260904075516 24 225 3.2 6.4 0.00 1.19 0.00 95 1012.1
20260904074516 24 203 1.6 6.4 0.00 1.19 0.00 95 1012.0
20260904073518 24 203 1.6 8.0 0.00 1.19 0.00 95 1012.1
20260904072516 24 248 1.6 12.9 0.00 1.19 0.00 95 1012.0
20260904071537 24 225 3.2 9.7 0.00 1.19 0.00 96 1011.8
20260904070536 24 225 3.2 9.7 0.00 1.19 0.00 96 1011.8
20260904065536 24 225 4.8 14.5 0.00 1.19 0.00 97 1011.8
20260904064516 23 225 3.2 12.9 0.00 1.19 0.00 97 1011.8
20260904063518 23 225 1.6 6.4 0.00 1.19 0.00 97 1011.9
20260904062516 23 225 3.2 6.4 0.00 1.19 0.00 97 1012.0
20260904061536 23 225 1.6 6.4 0.00 1.19 0.00 96 1012.0
20260904060516 23 0.0 3.2 0.00 1.19 0.00 96 1012.1
20260904055516 23 0.0 3.2 0.00 1.19 0.00 96 1012.3
20260904054516 23 0.0 6.4 0.00 1.19 0.00 96 1012.4
20260904053536 23 135 4.8 6.4 0.00 1.19 0.00 96 1012.3
20260904052516 23 90 3.2 6.4 0.00 1.19 0.00 96 1012.6
20260904051536 23 113 4.8 9.7 0.00 1.19 0.00 96 1012.7
20260904050517 23 158 1.6 8.0 0.03 1.19 0.00 96 1013.0
20260904045517 23 158 3.2 12.9 0.05 1.19 1.19 96 1012.9
20260904044517 23 113 9.7 16.1 0.05 1.19 1.19 96 1012.8
20260904043517 23 135 9.7 20.9 0.05 1.19 1.19 96 1012.7
20260904042517 23 113 9.7 17.7 0.05 1.19 1.19 96 1012.7
20260904041517 23 135 6.4 12.9 0.05 1.19 1.19 96 1012.9
20260904040517 23 113 6.4 11.3 0.03 1.17 1.17 95 1013.2
20260904035517 23 113 8.0 14.5 0.00 1.14 1.14 95 1013.3
20260904034517 23 113 9.7 14.5 0.00 1.14 1.14 95 1013.1
20260904033517 23 113 9.7 17.7 0.00 1.14 1.14 95 1013.2
20260904032516 23 113 11.3 17.7 0.00 1.14 1.14 95 1013.3
20260904031517 23 90 9.7 14.5 0.00 1.14 1.14 95 1013.3
20260904030557 23 90 8.0 14.5 0.00 1.14 1.14 95 1013.2
20260904025538 23 90 8.0 12.9 0.00 1.14 1.14 95 1013.3
20260904024516 23 90 6.4 14.5 0.00 1.14 1.14 94 1013.3
20260904023518 24 113 8.0 12.9 0.00 1.14 1.14 94 1013.2
20260904022516 24 113 9.7 14.5 0.00 1.14 1.14 94 1013.2
20260904021517 24 113 8.0 14.5 0.00 1.14 1.14 94 1013.2
20260904020537 24 113 8.0 12.9 0.00 1.14 1.14 94 1013.2
20260904015517 24 113 8.0 14.5 0.00 1.14 1.14 93 1013.2
20260904014517 24 113 9.7 14.5 0.00 1.14 1.14 94 1012.9
20260904013517 24 113 9.7 14.5 0.00 1.14 1.14 93 1012.8
20260904012517 24 113 8.0 11.3 0.00 1.14 1.14 93 1012.5
20260904011516 24 113 8.0 12.9 0.00 1.14 1.14 93 1012.4
20260904010557 24 113 8.0 12.9 0.00 1.14 1.14 92 1012.3
20260904005516 25 113 8.0 11.3 0.00 1.14 1.14 92 1012.2
20260904004516 25 113 8.0 12.9 0.00 1.14 1.14 91 1012.4
20260904003516 25 90 6.4 11.3 0.00 1.14 1.14 90 1012.5
20260904002516 25 90 4.8 9.7 0.00 1.14 1.14 89 1012.6
20260904001516 25 90 6.4 11.3 0.00 1.14 1.14 89 1012.5
20260904000516 25 113 8.0 12.9 0.00 1.14 1.14 88 1012.6
20260903235536 26 90 6.4 9.7 0.00 1.14 1.14 87 1012.7
20260903234517 26 113 6.4 12.9 0.00 1.14 1.14 87 1012.7
20260903233516 26 113 4.8 12.9 0.00 1.14 1.14 86 1012.7
20260903232516 26 113 8.0 12.9 0.00 1.14 1.14 86 1012.8
20260903231516 26 90 8.0 14.5 0.00 1.14 1.14 85 1012.6
20260903230516 26 113 6.4 11.3 0.00 1.14 1.14 84 1013.1
20260903225517 26 90 6.4 11.3 0.00 1.14 1.14 84 1013.0
20260903224516 26 90 9.7 16.1 0.00 1.14 1.14 83 1013.0
20260903223516 27 90 6.4 11.3 0.00 1.14 1.14 83 1012.8
20260903222516 27 90 4.8 9.7 0.00 1.14 1.14 83 1012.9
20260903221518 27 90 4.8 9.7 0.00 1.14 1.14 81 1012.9
20260903220518 27 0.0 3.2 0.00 1.14 1.14 83 1013.0
20260903215516 26 135 3.2 8.0 0.00 1.14 1.14 83 1013.2
20260903214517 26 158 3.2 8.0 0.00 1.14 1.14 82 1013.1
20260903213516 27 135 6.4 12.9 0.00 1.14 1.14 82 1012.9
20260903212516 27 135 4.8 12.9 0.00 1.14 1.14 81 1013.1
20260903211516 27 135 8.0 17.7 0.00 1.14 1.14 80 1013.0
20260903210516 27 135 4.8 12.9 0.00 1.14 1.14 84 1013.0
20260903205536 26 135 4.8 11.3 0.00 1.14 1.14 83 1013.0
20260903204516 26 135 3.2 6.4 0.00 1.14 1.14 84 1013.1
20260903203536 26 135 6.4 14.5 0.00 1.14 1.14 84 1013.2
20260903202516 26 113 6.4 12.9 0.00 1.14 1.14 83 1013.2
20260903201536 26 113 6.4 9.7 0.00 1.14 1.14 84 1013.2
20260903200516 26 90 3.2 6.4 0.00 1.14 1.14 83 1013.4
20260903195516 26 135 1.6 6.4 0.00 1.14 1.14 83 1013.7
20260903194516 26 0.0 3.2 0.00 1.14 1.14 84 1013.8
20260903193517 26 68 1.6 4.8 0.00 1.14 1.14 85 1013.5
20260903192536 25 0.0 3.2 0.00 1.14 1.14 86 1013.4
20260903191536 25 135 3.2 8.0 0.00 1.14 1.14 85 1013.1
20260903190516 25 135 6.4 12.9 0.00 1.14 1.14 87 1013.0
20260903185516 25 135 8.0 16.1 0.00 1.14 1.14 90 1013.0
20260903184516 24 90 6.4 9.7 0.00 1.14 1.14 91 1013.0
20260903183516 23 90 4.8 11.3 0.00 1.14 1.14 93 1013.2
20260903182516 23 90 1.6 6.4 0.00 1.14 1.14 94 1013.2
20260903181516 23 68 3.2 6.4 0.00 1.14 1.14 95 1013.5
20260903180516 22 135 6.4 12.9 0.00 1.14 1.14 95 1013.0